| time (UTC) | temp F | wind direction | speed MPH | gust MPH | rain 1hr in | rain 24hr in | rain mn in | humidity % | barometer mb |
| 20260506033151 | 49 | 193 | 0.0 | 0.0 | 0.01 | 0.30 | 0.00 | 96 | 1007.4 |
| 20260506032652 | 49 | 193 | 0.0 | 0.0 | 0.00 | 0.29 | 0.00 | 96 | 1007.4 |
| 20260506032151 | 50 | 193 | 0.0 | 0.0 | 0.00 | 0.29 | 0.00 | 96 | 1007.3 |
| 20260506031652 | 50 | 193 | 0.0 | 0.0 | 0.00 | 0.29 | 0.00 | 96 | 1007.3 |
| 20260506031518 | 50 | 193 | 0.0 | 0.0 | 0.00 | 0.29 | 0.00 | 96 | 1007.3 |
| 20260506031334 | 50 | 193 | 0.0 | 0.0 | 0.00 | 0.29 | 0.00 | 96 | 1007.3 |
| 20260506030205 | 50 | 193 | 0.0 | 0.0 | 0.00 | 0.29 | 0.00 | 96 | 1007.2 |
| 20260506025649 | 50 | 193 | 0.0 | 0.0 | 0.00 | 0.29 | 0.00 | 96 | 1007.3 |
| 20260506025148 | 50 | 193 | 0.0 | 0.0 | 0.00 | 0.29 | 0.00 | 96 | 1007.3 |
| 20260506024646 | 50 | 193 | 0.0 | 0.0 | 0.00 | 0.29 | 0.00 | 96 | 1007.5 |
| 20260506024149 | 50 | 193 | 0.0 | 0.0 | 0.00 | 0.29 | 0.00 | 96 | 1007.5 |
| 20260506023646 | 51 | 193 | 0.0 | 0.0 | 0.00 | 0.29 | 0.00 | 96 | 1007.7 |
| 20260506023154 | 51 | 193 | 0.0 | 0.0 | 0.00 | 0.29 | 0.00 | 96 | 1007.8 |
| 20260506022649 | 50 | 193 | 0.0 | 0.0 | 0.00 | 0.29 | 0.00 | 96 | 1007.9 |
| 20260506022146 | 50 | 193 | 0.0 | 0.0 | 0.00 | 0.29 | 0.00 | 96 | 1007.9 |
| 20260506021714 | 50 | 193 | 0.0 | 0.0 | 0.00 | 0.29 | 0.00 | 96 | 1007.8 |
| 20260506021656 | 50 | 193 | 0.0 | 0.0 | 0.00 | 0.29 | 0.00 | 96 | 1007.9 |
| 20260506020643 | 50 | 193 | 0.0 | 0.0 | 0.00 | 0.29 | 0.00 | 96 | 1007.9 |
| 20260506020142 | 50 | 193 | 0.0 | 0.0 | 0.00 | 0.29 | 0.00 | 96 | 1008.0 |
| 20260506015642 | 50 | 193 | 0.0 | 0.0 | 0.00 | 0.29 | 0.00 | 96 | 1007.9 |
| 20260506015150 | 50 | 193 | 0.0 | 0.0 | 0.00 | 0.29 | 0.00 | 96 | 1007.9 |
| 20260506014639 | 50 | 193 | 0.0 | 0.0 | 0.00 | 0.29 | 0.00 | 96 | 1007.9 |
| 20260506014138 | 50 | 193 | 0.0 | 0.0 | 0.00 | 0.29 | 0.00 | 96 | 1007.9 |
| 20260506013636 | 50 | 193 | 0.0 | 0.0 | 0.00 | 0.29 | 0.00 | 96 | 1007.9 |
| 20260506013134 | 51 | 193 | 0.0 | 0.0 | 0.00 | 0.29 | 0.00 | 96 | 1007.9 |
| 20260506012637 | 50 | 193 | 0.0 | 0.0 | 0.00 | 0.29 | 0.00 | 96 | 1007.9 |
| 20260506012245 | 51 | 193 | 0.0 | 0.0 | 0.00 | 0.29 | 0.00 | 95 | 1007.8 |
| 20260506012144 | 50 | 193 | 0.0 | 0.0 | 0.00 | 0.29 | 0.00 | 95 | 1007.9 |
| 20260506011137 | 51 | 193 | 0.0 | 0.0 | 0.00 | 0.29 | 0.00 | 95 | 1007.8 |
| 20260506010849 | 51 | 193 | 0.0 | 0.0 | 0.00 | 0.29 | 0.00 | 95 | 1007.9 |
| 20260506010729 | 51 | 193 | 0.0 | 0.0 | 0.00 | 0.29 | 0.00 | 95 | 1007.8 |
| 20260506010224 | 51 | 193 | 0.0 | 0.0 | 0.00 | 0.29 | 0.00 | 95 | 1007.9 |
| 20260506005117 | 51 | 193 | 0.0 | 0.0 | 0.00 | 0.29 | 0.00 | 95 | 1007.9 |
| 20260506004642 | 52 | 193 | 0.0 | 0.0 | 0.00 | 0.29 | 0.00 | 94 | 1008.0 |
| 20260506004622 | 51 | 193 | 0.0 | 0.0 | 0.00 | 0.29 | 0.00 | 94 | 1007.9 |
| 20260506003653 | 52 | 193 | 0.0 | 0.0 | 0.00 | 0.29 | 0.00 | 93 | 1008.1 |
| 20260506003619 | 52 | 193 | 0.0 | 0.0 | 0.00 | 0.29 | 0.00 | 94 | 1008.1 |
| 20260506002610 | 53 | 193 | 0.0 | 1.0 | 0.00 | 0.29 | 0.00 | 92 | 1008.1 |
| 20260506002118 | 53 | 193 | 0.0 | 1.0 | 0.00 | 0.29 | 0.00 | 92 | 1008.1 |
| 20260506001619 | 53 | 196 | 0.0 | 1.0 | 0.00 | 0.29 | 0.00 | 92 | 1008.2 |
| 20260506001118 | 54 | 196 | 0.0 | 1.0 | 0.00 | 0.29 | 0.00 | 91 | 1008.3 |
| 20260506000606 | 54 | 196 | 0.0 | 0.0 | 0.00 | 0.29 | 0.00 | 91 | 1008.4 |
| 20260506000115 | 54 | 196 | 0.0 | 1.0 | 0.00 | 0.29 | 0.00 | 91 | 1008.4 |
| 20260505235608 | 54 | 196 | 0.0 | 1.0 | 0.00 | 0.29 | 0.00 | 91 | 1008.5 |
| 20260505235110 | 54 | 196 | 0.0 | 1.0 | 0.00 | 0.29 | 0.00 | 91 | 1008.5 |
| 20260505234604 | 54 | 186 | 0.0 | 1.0 | 0.00 | 0.29 | 0.00 | 92 | 1008.6 |
| 20260505234104 | 54 | 187 | 0.0 | 0.0 | 0.00 | 0.29 | 0.00 | 92 | 1008.6 |
| 20260505233610 | 54 | 189 | 0.0 | 1.0 | 0.00 | 0.29 | 0.00 | 92 | 1008.6 |
| 20260505233113 | 54 | 189 | 0.0 | 2.0 | 0.00 | 0.29 | 0.00 | 92 | 1008.6 |
| 20260505232607 | 54 | 196 | 0.0 | 2.0 | 0.00 | 0.29 | 0.00 | 92 | 1008.6 |
| 20260505232111 | 54 | 192 | 0.0 | 1.0 | 0.00 | 0.29 | 0.00 | 93 | 1008.6 |
| 20260505231555 | 54 | 192 | 0.0 | 0.0 | 0.00 | 0.29 | 0.00 | 93 | 1008.6 |
| 20260505231058 | 54 | 192 | 0.0 | 0.0 | 0.00 | 0.29 | 0.00 | 93 | 1008.6 |
| 20260505230607 | 54 | 192 | 0.0 | 0.0 | 0.00 | 0.29 | 0.00 | 93 | 1008.6 |
| 20260505230052 | 54 | 192 | 0.0 | 2.0 | 0.00 | 0.29 | 0.00 | 92 | 1008.7 |
| 20260505225549 | 54 | 192 | 0.0 | 2.0 | 0.00 | 0.29 | 0.00 | 93 | 1008.7 |
| 20260505225122 | 54 | 192 | 0.0 | 1.0 | 0.00 | 0.29 | 0.00 | 93 | 1008.7 |
| 20260505225116 | 54 | 192 | 0.0 | 1.0 | 0.00 | 0.29 | 0.00 | 93 | 1008.6 |
| 20260505225043 | 54 | 192 | 0.0 | 0.0 | 0.00 | 0.29 | 0.00 | 93 | 1008.6 |
| 20260505223808 | 54 | 192 | 0.0 | 1.0 | 0.00 | 0.29 | 0.00 | 94 | 1008.6 |
| 20260505223803 | 53 | 192 | 0.0 | 0.0 | 0.00 | 0.29 | 0.00 | 94 | 1008.6 |
| 20260505223757 | 53 | 192 | 0.0 | 0.0 | 0.00 | 0.29 | 0.00 | 94 | 1008.6 |
| 20260505223615 | 54 | 192 | 0.0 | 1.0 | 0.00 | 0.29 | 0.00 | 94 | 1008.6 |
| 20260505221637 | 54 | 192 | 0.0 | 0.0 | 0.00 | 0.29 | 0.00 | 94 | 1008.5 |
| 20260505221556 | 53 | 192 | 0.0 | 0.0 | 0.00 | 0.29 | 0.00 | 94 | 1008.5 |
| 20260505220806 | 54 | 192 | 0.0 | 0.0 | 0.00 | 0.29 | 0.00 | 93 | 1008.6 |
| 20260505220520 | 55 | 192 | 0.0 | 0.0 | 0.00 | 0.29 | 0.29 | 92 | 1008.6 |
| 20260505220254 | 54 | 192 | 0.0 | 0.0 | 0.00 | 0.29 | 0.00 | 92 | 1008.6 |
| 20260505215643 | 55 | 192 | 0.0 | 0.0 | 0.00 | 0.29 | 0.29 | 92 | 1008.6 |
| 20260505214925 | 55 | 192 | 0.0 | 0.0 | 0.00 | 0.29 | 0.29 | 93 | 1008.7 |
| 20260505214629 | 55 | 192 | 0.0 | 0.0 | 0.00 | 0.29 | 0.29 | 93 | 1008.6 |
| 20260505213639 | 55 | 192 | 0.0 | 0.0 | 0.00 | 0.29 | 0.29 | 93 | 1008.7 |
| 20260505213539 | 55 | 192 | 0.0 | 0.0 | 0.00 | 0.29 | 0.29 | 93 | 1008.7 |
| 20260505213132 | 55 | 192 | 0.0 | 0.0 | 0.00 | 0.29 | 0.29 | 93 | 1008.7 |
| 20260505212423 | 55 | 192 | 0.0 | 0.0 | 0.00 | 0.29 | 0.29 | 93 | 1008.5 |
| 20260505212414 | 55 | 192 | 0.0 | 0.0 | 0.00 | 0.29 | 0.29 | 93 | 1008.7 |
| 20260505212333 | 55 | 192 | 0.0 | 0.0 | 0.00 | 0.29 | 0.29 | 94 | 1008.5 |
| 20260505212323 | 55 | 192 | 0.0 | 0.0 | 0.00 | 0.29 | 0.29 | 93 | 1008.5 |
| 20260505212058 | 55 | 192 | 0.0 | 0.0 | 0.00 | 0.29 | 0.29 | 92 | 1008.7 |
| 20260505211655 | 55 | 192 | 0.0 | 0.0 | 0.00 | 0.29 | 0.29 | 93 | 1008.7 |
| 20260505211344 | 55 | 192 | 0.0 | 0.0 | 0.00 | 0.29 | 0.29 | 93 | 1008.7 |
| 20260505210059 | 55 | 192 | 0.0 | 0.0 | 0.00 | 0.29 | 0.29 | 94 | 1008.7 |
| 20260505205558 | 55 | 192 | 0.0 | 0.0 | 0.00 | 0.29 | 0.29 | 94 | 1008.7 |
| 20260505205156 | 55 | 192 | 0.0 | 0.0 | 0.00 | 0.29 | 0.29 | 94 | 1008.6 |
| 20260505203611 | 55 | 192 | 0.0 | 0.0 | 0.00 | 0.29 | 0.29 | 93 | 1008.5 |
| 20260505203223 | 55 | 192 | 0.0 | 0.0 | 0.00 | 0.29 | 0.29 | 93 | 1008.5 |
| 20260505202022 | 56 | 192 | 0.0 | 0.0 | 0.00 | 0.29 | 0.29 | 92 | 1008.5 |
| 20260505201522 | 56 | 192 | 0.0 | 0.0 | 0.00 | 0.29 | 0.29 | 92 | 1008.4 |
| 20260505201016 | 56 | 192 | 0.0 | 1.0 | 0.00 | 0.29 | 0.29 | 91 | 1008.4 |
| 20260505200515 | 56 | 192 | 0.0 | 1.0 | 0.00 | 0.29 | 0.29 | 92 | 1008.5 |
| 20260505200035 | 56 | 192 | 0.0 | 1.0 | 0.00 | 0.29 | 0.29 | 92 | 1008.5 |
| 20260505195558 | 56 | 192 | 0.0 | 0.0 | 0.00 | 0.29 | 0.29 | 93 | 1008.4 |
| 20260505195022 | 56 | 192 | 0.0 | 0.0 | 0.00 | 0.29 | 0.29 | 93 | 1008.3 |
| 20260505194520 | 56 | 192 | 0.0 | 0.0 | 0.00 | 0.29 | 0.29 | 93 | 1008.2 |
| 20260505194336 | 56 | 192 | 0.0 | 0.0 | 0.00 | 0.29 | 0.29 | 93 | 1008.1 |
| 20260505193542 | 56 | 192 | 0.0 | 0.0 | 0.00 | 0.29 | 0.29 | 93 | 1008.1 |
| 20260505193036 | 56 | 192 | 0.0 | 0.0 | 0.00 | 0.29 | 0.29 | 93 | 1008.0 |
| 20260505192537 | 56 | 192 | 0.0 | 0.0 | 0.00 | 0.29 | 0.29 | 92 | 1007.9 |
| 20260505192049 | 56 | 192 | 0.0 | 0.0 | 0.00 | 0.29 | 0.29 | 92 | 1007.9 |
| 20260505191522 | 57 | 192 | 0.0 | 0.0 | 0.01 | 0.29 | 0.29 | 92 | 1007.9 |
| 20260505191048 | 57 | 192 | 0.0 | 0.0 | 0.01 | 0.29 | 0.29 | 92 | 1007.8 |
| 20260505190525 | 57 | 192 | 0.0 | 1.0 | 0.01 | 0.29 | 0.29 | 91 | 1007.7 |
| 20260505190004 | 57 | 192 | 0.0 | 1.0 | 0.01 | 0.29 | 0.28 | 90 | 1007.7 |
| 20260505185501 | 57 | 192 | 0.0 | 0.0 | 0.01 | 0.29 | 0.28 | 90 | 1007.8 |
| 20260505185021 | 57 | 192 | 0.0 | 1.0 | 0.02 | 0.29 | 0.28 | 90 | 1007.9 |
| 20260505184521 | 58 | 192 | 0.0 | 1.0 | 0.02 | 0.29 | 0.28 | 91 | 1007.8 |
| 20260505184249 | 58 | 192 | 0.0 | 6.0 | 0.03 | 0.29 | 0.28 | 91 | 1007.8 |
| 20260505184104 | 58 | 192 | 0.0 | 6.0 | 0.02 | 0.29 | 0.28 | 90 | 1007.8 |
| 20260505183006 | 58 | 200 | 0.0 | 4.0 | 0.04 | 0.29 | 0.28 | 92 | 1007.8 |
| 20260505182704 | 58 | 28 | 0.0 | 0.0 | 0.04 | 0.29 | 0.28 | 94 | 1007.8 |
| 20260505182540 | 58 | 130 | 0.0 | 1.0 | 0.04 | 0.29 | 0.28 | 94 | 1007.9 |
| 20260505181503 | 58 | 28 | 0.0 | 0.0 | 0.03 | 0.28 | 0.28 | 94 | 1007.8 |
| 20260505181004 | 58 | 28 | 0.0 | 0.0 | 0.03 | 0.28 | 0.28 | 94 | 1007.6 |
| 20260505180502 | 58 | 28 | 0.0 | 0.0 | 0.03 | 0.28 | 0.28 | 94 | 1007.5 |
| 20260505180054 | 58 | 28 | 0.0 | 0.0 | 0.03 | 0.28 | 0.25 | 94 | 1007.5 |
| 20260505180020 | 58 | 28 | 0.0 | 0.0 | 0.03 | 0.28 | 0.25 | 94 | 1007.5 |
| 20260505175006 | 58 | 28 | 0.0 | 0.0 | 0.02 | 0.28 | 0.25 | 94 | 1007.5 |
| 20260505174650 | 58 | 28 | 0.0 | 0.0 | 0.01 | 0.26 | 0.25 | 91 | 1007.7 |
| 20260505174532 | 58 | 28 | 0.0 | 0.0 | 0.02 | 0.28 | 0.25 | 93 | 1007.6 |
| 20260505174005 | 58 | 28 | 0.0 | 0.0 | 0.02 | 0.27 | 0.25 | 92 | 1007.7 |
| 20260505173055 | 58 | 25 | 0.0 | 0.0 | 0.00 | 0.25 | 0.25 | 90 | 1007.9 |
| 20260505173006 | 59 | 28 | 0.0 | 0.0 | 0.00 | 0.25 | 0.25 | 90 | 1008.0 |
| 20260505172459 | 58 | 25 | 0.0 | 0.0 | 0.00 | 0.25 | 0.25 | 89 | 1008.0 |
| 20260505171448 | 59 | 25 | 0.0 | 0.0 | 0.00 | 0.25 | 0.25 | 88 | 1008.0 |
| 20260505170949 | 59 | 25 | 0.0 | 0.0 | 0.00 | 0.25 | 0.25 | 89 | 1008.0 |
| 20260505170446 | 59 | 25 | 0.0 | 0.0 | 0.00 | 0.25 | 0.25 | 88 | 1007.9 |
| 20260505165941 | 59 | 25 | 0.0 | 0.0 | 0.00 | 0.25 | 0.25 | 88 | 1007.9 |
| 20260505165439 | 59 | 25 | 0.0 | 0.0 | 0.00 | 0.25 | 0.25 | 88 | 1007.8 |
| 20260505164939 | 59 | 25 | 0.0 | 0.0 | 0.00 | 0.25 | 0.25 | 86 | 1007.8 |
| 20260505164437 | 59 | 25 | 0.0 | 0.0 | 0.00 | 0.25 | 0.25 | 88 | 1007.7 |
| 20260505163936 | 59 | 25 | 0.0 | 0.0 | 0.00 | 0.25 | 0.25 | 88 | 1007.7 |
| 20260505163436 | 59 | 25 | 0.0 | 0.0 | 0.00 | 0.25 | 0.25 | 89 | 1007.7 |
| 20260505162929 | 59 | 25 | 0.0 | 0.0 | 0.00 | 0.25 | 0.25 | 89 | 1007.8 |
| 20260505162434 | 59 | 26 | 0.0 | 0.0 | 0.00 | 0.25 | 0.25 | 90 | 1007.8 |
| 20260505161945 | 59 | 26 | 0.0 | 0.0 | 0.00 | 0.25 | 0.25 | 90 | 1007.7 |
| 20260505161431 | 59 | 26 | 0.0 | 0.0 | 0.00 | 0.25 | 0.25 | 89 | 1007.8 |
| 20260505160929 | 59 | 26 | 0.0 | 1.0 | 0.00 | 0.25 | 0.25 | 90 | 1007.7 |
| 20260505160429 | 59 | 26 | 0.0 | 1.0 | 0.01 | 0.25 | 0.25 | 90 | 1007.7 |
| 20260505152910 | 58 | 5 | 0.0 | 0.0 | 0.01 | 0.25 | 0.24 | 91 | 1008.0 |
| 20260505152404 | 58 | 5 | 0.0 | 0.0 | 0.01 | 0.25 | 0.24 | 93 | 1008.1 |
| 20260505151905 | 58 | 5 | 0.0 | 0.0 | 0.01 | 0.25 | 0.24 | 93 | 1008.2 |
| 20260505151401 | 58 | 5 | 0.0 | 0.0 | 0.02 | 0.25 | 0.24 | 93 | 1008.1 |
| 20260505150901 | 58 | 5 | 0.0 | 0.0 | 0.02 | 0.25 | 0.24 | 93 | 1008.2 |
| 20260505150803 | 58 | 5 | 0.0 | 0.0 | 0.02 | 0.24 | 0.24 | 93 | 1008.2 |
| 20260505140354 | 58 | 34 | 0.0 | 2.0 | 0.09 | 0.23 | 0.23 | 92 | 1008.8 |
| 20260505130134 | 60 | 49 | 0.0 | 6.0 | 0.13 | 0.13 | 0.00 | 89 | 1008.6 |
| 20260505124846 | 60 | 355 | 0.0 | 5.0 | 0.11 | 0.11 | 0.00 | 87 | 1008.5 |
| 20260505124346 | 60 | 139 | 0.0 | 5.0 | 0.09 | 0.09 | 0.00 | 86 | 1008.5 |
| 20260505123844 | 61 | 165 | 0.0 | 5.0 | 0.09 | 0.09 | 0.00 | 85 | 1008.5 |
| 20260505123351 | 62 | 84 | 0.0 | 3.0 | 0.06 | 0.06 | 0.00 | 82 | 1008.4 |
| 20260505122842 | 64 | 86 | 0.0 | 3.0 | 0.01 | 0.01 | 0.00 | 77 | 1008.2 |
| 20260505122335 | 65 | 32 | 0.0 | 3.0 | 0.00 | 0.00 | 0.00 | 72 | 1008.2 |
| 20260505121836 | 66 | 344 | 0.0 | 4.0 | 0.00 | 0.00 | 0.00 | 68 | 1008.1 |
| 20260505121409 | 67 | 303 | 1.0 | 7.0 | 0.00 | 0.00 | 0.00 | 65 | 1008.1 |
| 20260505121349 | 66 | 306 | 1.0 | 7.0 | 0.00 | 0.00 | 0.00 | 67 | 1008.1 |
| 20260505120339 | 67 | 337 | 1.0 | 7.0 | 0.00 | 0.00 | 0.00 | 63 | 1008.0 |
| 20260505115831 | 67 | 318 | 1.0 | 5.0 | 0.00 | 0.00 | 0.00 | 64 | 1008.0 |
| 20260505115329 | 67 | 342 | 1.0 | 7.0 | 0.00 | 0.00 | 0.00 | 64 | 1008.0 |
| 20260505114828 | 67 | 335 | 0.0 | 7.0 | 0.00 | 0.00 | 0.00 | 64 | 1008.0 |
| 20260505114817 | 67 | 311 | 1.0 | 7.0 | 0.00 | 0.00 | 0.00 | 63 | 1008.0 |
| 20260505113824 | 67 | 11 | 2.0 | 7.0 | 0.00 | 0.00 | 0.00 | 63 | 1008.0 |
| 20260505113325 | 68 | 35 | 1.0 | 6.0 | 0.00 | 0.00 | 0.00 | 62 | 1007.9 |
| 20260505112824 | 68 | 300 | 0.0 | 3.0 | 0.00 | 0.00 | 0.00 | 62 | 1008.0 |
| 20260505112322 | 69 | 309 | 0.0 | 5.0 | 0.00 | 0.00 | 0.00 | 62 | 1008.0 |
| 20260505111821 | 69 | 296 | 0.0 | 5.0 | 0.00 | 0.00 | 0.00 | 61 | 1008.1 |
| 20260505111318 | 69 | 300 | 1.0 | 5.0 | 0.00 | 0.00 | 0.00 | 61 | 1008.1 |
| 20260505110816 | 69 | 347 | 1.0 | 6.0 | 0.00 | 0.00 | 0.00 | 61 | 1008.1 |
| 20260505110313 | 69 | 275 | 1.0 | 6.0 | 0.00 | 0.00 | 0.00 | 59 | 1008.1 |
| 20260505101905 | 68 | 171 | 1.0 | 7.0 | 0.00 | 0.00 | 0.00 | 65 | 1008.6 |
| 20260505101810 | 68 | 15 | 1.0 | 7.0 | 0.00 | 0.00 | 0.00 | 63 | 1008.6 |
| 20260505100811 | 67 | 0 | 1.0 | 7.0 | 0.00 | 0.00 | 0.00 | 64 | 1008.7 |
| 20260505100306 | 68 | 355 | 0.0 | 4.0 | 0.00 | 0.00 | 0.00 | 66 | 1008.8 |
| 20260505095804 | 67 | 319 | 0.0 | 4.0 | 0.00 | 0.00 | 0.00 | 68 | 1008.9 |
| 20260505095307 | 66 | 34 | 2.0 | 7.0 | 0.00 | 0.00 | 0.00 | 65 | 1008.9 |
| 20260505094809 | 67 | 350 | 2.0 | 7.0 | 0.00 | 0.00 | 0.00 | 65 | 1008.9 |
| 20260505094304 | 67 | 355 | 1.0 | 6.0 | 0.00 | 0.00 | 0.00 | 64 | 1008.9 |
| 20260505093808 | 68 | 348 | 0.0 | 6.0 | 0.00 | 0.00 | 0.00 | 68 | 1008.9 |
| 20260505093308 | 68 | 311 | 1.0 | 4.0 | 0.00 | 0.00 | 0.00 | 68 | 1008.9 |
| 20260505092808 | 67 | 286 | 1.0 | 5.0 | 0.00 | 0.00 | 0.00 | 68 | 1009.0 |
| 20260505092305 | 65 | 323 | 1.0 | 5.0 | 0.00 | 0.00 | 0.00 | 70 | 1009.1 |
| 20260505091807 | 65 | 21 | 1.0 | 5.0 | 0.00 | 0.00 | 0.00 | 71 | 1009.2 |
| 20260505091306 | 65 | 315 | 1.0 | 6.0 | 0.00 | 0.00 | 0.00 | 71 | 1009.3 |
| 20260505090753 | 65 | 15 | 1.0 | 6.0 | 0.00 | 0.00 | 0.00 | 71 | 1009.3 |
| 20260505090249 | 65 | 325 | 2.0 | 9.0 | 0.00 | 0.00 | 0.00 | 71 | 1009.3 |
| 20260505085748 | 65 | 35 | 1.0 | 9.0 | 0.00 | 0.00 | 0.00 | 71 | 1009.3 |
| 20260505085254 | 65 | 19 | 1.0 | 6.0 | 0.00 | 0.00 | 0.00 | 72 | 1009.3 |
| 20260505084803 | 65 | 32 | 2.0 | 6.0 | 0.00 | 0.00 | 0.00 | 72 | 1009.3 |
| 20260505084250 | 64 | 16 | 2.0 | 6.0 | 0.00 | 0.00 | 0.00 | 71 | 1009.3 |
| 20260505083752 | 64 | 5 | 1.0 | 6.0 | 0.00 | 0.00 | 0.00 | 70 | 1009.4 |
| 20260505083254 | 64 | 341 | 1.0 | 6.0 | 0.00 | 0.00 | 0.00 | 71 | 1009.4 |
| 20260505082745 | 64 | 12 | 1.0 | 6.0 | 0.00 | 0.00 | 0.00 | 71 | 1009.4 |
| 20260505082243 | 64 | 5 | 1.0 | 4.0 | 0.00 | 0.00 | 0.00 | 73 | 1009.4 |
| 20260505081744 | 64 | 348 | 1.0 | 4.0 | 0.00 | 0.00 | 0.00 | 71 | 1009.5 |
| 20260505081318 | 64 | 336 | 0.0 | 5.0 | 0.00 | 0.00 | 0.00 | 71 | 1009.5 |
| 20260505081247 | 64 | 325 | 0.0 | 5.0 | 0.00 | 0.00 | 0.00 | 70 | 1009.5 |
| 20260505080248 | 64 | 284 | 0.0 | 5.0 | 0.00 | 0.00 | 0.00 | 71 | 1009.6 |
| 20260505075744 | 63 | 355 | 0.0 | 5.0 | 0.00 | 0.00 | 0.00 | 72 | 1009.6 |
| 20260505075242 | 63 | 355 | 1.0 | 5.0 | 0.00 | 0.00 | 0.00 | 71 | 1009.6 |
| 20260505074750 | 63 | 355 | 1.0 | 5.0 | 0.00 | 0.00 | 0.00 | 72 | 1009.6 |
| 20260505074415 | 63 | 321 | 0.0 | 5.0 | 0.00 | 0.00 | 0.00 | 73 | 1009.7 |
| 20260505074243 | 63 | 297 | 1.0 | 5.0 | 0.00 | 0.00 | 0.00 | 72 | 1009.7 |
| 20260505073237 | 63 | 310 | 0.0 | 5.0 | 0.00 | 0.00 | 0.00 | 73 | 1009.6 |
| 20260505072740 | 62 | 335 | 0.0 | 5.0 | 0.00 | 0.00 | 0.00 | 73 | 1009.7 |
| 20260505072231 | 62 | 324 | 0.0 | 5.0 | 0.00 | 0.00 | 0.00 | 74 | 1009.7 |
| 20260505071739 | 62 | 348 | 0.0 | 3.0 | 0.00 | 0.00 | 0.00 | 78 | 1009.7 |
| 20260505071229 | 61 | 350 | 0.0 | 3.0 | 0.00 | 0.00 | 0.00 | 75 | 1009.8 |
| 20260505070736 | 61 | 350 | 0.0 | 3.0 | 0.00 | 0.00 | 0.00 | 76 | 1009.8 |
| 20260505070230 | 61 | 309 | 0.0 | 2.0 | 0.00 | 0.00 | 0.00 | 77 | 1009.9 |
| 20260505065730 | 61 | 315 | 0.0 | 2.0 | 0.00 | 0.00 | 0.00 | 76 | 1009.9 |
| 20260505065240 | 60 | 293 | 0.0 | 1.0 | 0.00 | 0.00 | 0.00 | 77 | 1010.0 |
| 20260505064735 | 60 | 293 | 0.0 | 1.0 | 0.00 | 0.00 | 0.00 | 77 | 1010.0 |
| 20260505064235 | 60 | 341 | 0.0 | 4.0 | 0.00 | 0.00 | 0.00 | 78 | 1009.9 |
| 20260505063734 | 60 | 341 | 0.0 | 4.0 | 0.00 | 0.00 | 0.00 | 78 | 1009.9 |
| 20260505063649 | 60 | 351 | 0.0 | 4.0 | 0.00 | 0.00 | 0.00 | 80 | 1010.0 |
| 20260505063434 | 60 | 342 | 0.0 | 4.0 | 0.00 | 0.00 | 0.00 | 78 | 1010.0 |
| 20260505063152 | 59 | 345 | 1.0 | 4.0 | 0.00 | 0.00 | 0.00 | 81 | 1010.1 |
| 20260505061748 | 59 | 340 | 1.0 | 4.0 | 0.00 | 0.00 | 0.00 | 80 | 1010.1 |
| 20260505061245 | 59 | 326 | 0.0 | 3.0 | 0.00 | 0.00 | 0.00 | 82 | 1010.1 |
| 20260505060753 | 59 | 15 | 0.0 | 3.0 | 0.00 | 0.00 | 0.00 | 81 | 1010.2 |
| 20260505060233 | 59 | 22 | 0.0 | 0.0 | 0.00 | 0.00 | 0.00 | 83 | 1010.2 |
| 20260505055830 | 58 | 22 | 0.0 | 0.0 | 0.00 | 0.00 | 0.00 | 84 | 1010.2 |
| 20260505055736 | 58 | 22 | 0.0 | 0.0 | 0.00 | 0.00 | 0.00 | 83 | 1010.2 |
| 20260505055346 | 58 | 22 | 0.0 | 0.0 | 0.00 | 0.00 | 0.00 | 83 | 1010.2 |
| 20260505054235 | 58 | 22 | 0.0 | 0.0 | 0.00 | 0.00 | 0.00 | 84 | 1010.2 |
| 20260505053736 | 57 | 22 | 0.0 | 0.0 | 0.00 | 0.00 | 0.00 | 85 | 1010.2 |
| 20260505053238 | 57 | 22 | 0.0 | 0.0 | 0.00 | 0.00 | 0.00 | 84 | 1010.2 |
| 20260505052729 | 57 | 22 | 0.0 | 0.0 | 0.00 | 0.00 | 0.00 | 85 | 1010.2 |
| 20260505052224 | 57 | 22 | 0.0 | 0.0 | 0.00 | 0.00 | 0.00 | 85 | 1010.2 |
| 20260505051738 | 57 | 22 | 0.0 | 0.0 | 0.00 | 0.00 | 0.00 | 84 | 1010.2 |
| 20260505051226 | 57 | 22 | 0.0 | 0.0 | 0.00 | 0.00 | 0.00 | 85 | 1010.2 |
| 20260505050720 | 56 | 22 | 0.0 | 0.0 | 0.00 | 0.00 | 0.00 | 84 | 1010.2 |
| 20260505050225 | 56 | 22 | 0.0 | 0.0 | 0.00 | 0.00 | 0.00 | 85 | 1010.2 |
| 20260505041712 | 56 | 22 | 0.0 | 0.0 | 0.00 | 0.00 | 0.00 | 85 | 1010.2 |
| 20260505041223 | 56 | 22 | 0.0 | 0.0 | 0.00 | 0.00 | 0.00 | 85 | 1010.2 |
| 20260505040709 | 56 | 22 | 0.0 | 0.0 | 0.00 | 0.00 | 0.00 | 85 | 1010.3 |
| 20260505040203 | 56 | 22 | 0.0 | 0.0 | 0.00 | 0.00 | 0.00 | 85 | 1010.3 |
| 20260505035704 | 55 | 22 | 0.0 | 0.0 | 0.00 | 0.00 | 0.00 | 85 | 1010.2 |
| 20260505035203 | 56 | 22 | 0.0 | 0.0 | 0.00 | 0.00 | 0.00 | 85 | 1010.3 |
| 20260505034710 | 56 | 22 | 0.0 | 0.0 | 0.00 | 0.00 | 0.00 | 85 | 1010.2 |
| 20260505034204 | 56 | 22 | 0.0 | 0.0 | 0.00 | 0.00 | 0.00 | 84 | 1010.3 |
| 20260505033931 | 56 | 22 | 0.0 | 0.0 | 0.00 | 0.00 | 0.00 | 83 | 1010.5 |
| 20260505033809 | 56 | 22 | 0.0 | 0.0 | 0.00 | 0.00 | 0.00 | 84 | 1010.3 |